RRR4717 EGWU-EGJB

Flight info

Callsign RRR4717
Flight time N/A
Altitude 23000
Route CPT Y321 PEPIS/N0339F280 Q41 SAM N63 LELNA
Aircraft A400/H-SDE2E3FGHIJ4J5M1RWXY/LB1D1

Departure

Time 2026-05-04 15:13
Airport RAF Northolt (EGWU)

Arrival

Time N/A
Airport Guernsey Airport (EGJB)
Time Latitude Longitude Altitude Speed Heading
2026-05-04 15:03 51.54975 -0.41418 127 ft 0 kts 263°
2026-05-04 15:10 51.54978 -0.41431 127 ft 0 kts 296°
2026-05-04 15:10 51.55028 -0.41552 127 ft 18 kts 326°
2026-05-04 15:10 51.55132 -0.41397 123 ft 11 kts 24°
2026-05-04 15:11 51.55231 -0.41351 128 ft 18 kts 15°
2026-05-04 15:11 51.55356 -0.41298 137 ft 18 kts 14°
2026-05-04 15:11 51.55444 -0.41205 140 ft 14 kts 65°
2026-05-04 15:11 51.55475 -0.41073 141 ft 12 kts 70°
2026-05-04 15:12 51.55514 -0.40961 141 ft 11 kts 33°
2026-05-04 15:12 51.55563 -0.40890 140 ft 10 kts 95°
2026-05-04 15:12 51.55523 -0.40881 139 ft 8 kts 217°
2026-05-04 15:12 51.55508 -0.40927 140 ft 0 kts 250°
2026-05-04 15:13 51.55417 -0.41349 140 ft 93 kts 250°
2026-05-04 15:13 51.55076 -0.42819 306 ft 170 kts 250°
2026-05-04 15:13 51.54594 -0.44669 1094 ft 185 kts 249°
2026-05-04 15:13 51.54124 -0.46715 1748 ft 208 kts 257°
2026-05-04 15:14 51.54193 -0.49108 2037 ft 222 kts 291°
2026-05-04 15:14 51.55076 -0.51124 2045 ft 222 kts 324°
2026-05-04 15:14 51.56480 -0.52001 2019 ft 214 kts 358°
2026-05-04 15:14 51.57798 -0.51465 2024 ft 187 kts 35°
2026-05-04 15:15 51.58569 -0.49878 2027 ft 180 kts 64°
2026-05-04 15:15 51.58991 -0.47993 2018 ft 179 kts 71°
2026-05-04 15:15 51.59343 -0.46082 2020 ft 177 kts 72°
2026-05-04 15:16 51.59892 -0.42180 2029 ft 180 kts 76°
2026-05-04 15:16 51.60151 -0.40208 2018 ft 181 kts 76°
2026-05-04 15:16 51.60661 -0.36282 1886 ft 172 kts 75°
2026-05-04 15:17 51.60892 -0.34486 1788 ft 163 kts 77°
2026-05-04 15:17 51.59967 -0.31508 1534 ft 165 kts 158°
2026-05-04 15:17 51.58883 -0.31226 1441 ft 153 kts 177°
2026-05-04 15:18 51.57828 -0.31223 1318 ft 150 kts 180°
2026-05-04 15:18 51.57005 -0.31992 1300 ft 143 kts 252°
2026-05-04 15:18 51.56866 -0.33601 1147 ft 149 kts 267°
2026-05-04 15:19 51.56436 -0.36826 680 ft 148 kts 252°
2026-05-04 15:19 51.56083 -0.38384 497 ft 148 kts 252°
2026-05-04 15:19 51.55403 -0.41418 140 ft 122 kts 255°
2026-05-04 15:20 51.55178 -0.42388 130 ft 56 kts 248°
2026-05-04 15:20 51.55080 -0.42807 125 ft 32 kts 250°
2026-05-04 15:20 51.55009 -0.43053 122 ft 11 kts 206°
2026-05-04 15:20 51.54985 -0.43022 120 ft 10 kts 120°
2026-05-04 15:21 51.54971 -0.42881 123 ft 16 kts 97°
2026-05-04 15:21 51.54961 -0.42724 128 ft 13 kts 96°
2026-05-04 15:21 51.54956 -0.42451 126 ft 12 kts 75°
2026-05-04 15:22 51.54984 -0.42328 127 ft 11 kts 69°
2026-05-04 15:22 51.55010 -0.42216 129 ft 12 kts 69°
2026-05-04 15:22 51.55064 -0.41924 126 ft 13 kts 94°
2026-05-04 15:23 51.55057 -0.41768 127 ft 15 kts 94°
2026-05-04 15:23 51.55053 -0.41660 126 ft 7 kts 93°
2026-05-04 15:23 51.55053 -0.41640 130 ft 0 kts 94°